Regional Weather Roundup
Issued by NWS

Home | Current Version | Previous Version | Graphics & Text | Print | Product List | Glossary On
Versions: 1 2 3 4 5 6 7 8 9 10 11 12 13 14 15 16 17 18 19 20 21 22 23 24 25 26 27 28 29 30 31 32 33 34 35 36 37 38 39 40 41 42 43 44 45 46 47 48 49 50
000
ASUS45 KCYS 270610
RWRWY

WYOMING REGIONAL WEATHER ROUNDUP
NATIONAL WEATHER SERVICE CHEYENNE WY
1200 AM MDT FRI MAR 27 2015

NOTE:  "FAIR" INDICATES FEW OR NO CLOUDS BELOW 12,000 FEET
WITH NO SIGNIFICANT WEATHER AND/OR OBSTRUCTIONS TO VISIBILITY.

WYZ001-270700-
YELLOWSTONE NATIONAL PARK

CITY           SKY/WX    TMP DP  RH WIND       PRES   REMARKS
LK YELLOWSTONE   N/A     29  27  92 CALM      30.39S
6HR MIN TEMP:  29; 6HR MAX TEMP:  40;

W YELLOWSTONE  NOT AVBL

$$
WYZ002>013-054>058-071-098>099-270700-
NORTHERN WYOMING

CITY           SKY/WX    TMP DP  RH WIND       PRES   REMARKS
JACKSON        FAIR      37  30  75 NE3       30.35F
CODY           FAIR      54  30  40 W18G29    30.16S
GREYBULL       CLOUDY    49  33  54 SE6       30.14R
6HR MIN TEMP:  49; 6HR MAX TEMP:  61;

WORLAND        FAIR      45  30  55 SW7       30.14S
6HR MIN TEMP:  40; 6HR MAX TEMP:  60;

SHERIDAN       CLOUDY    48  38  68 S3        30.12R
6HR MIN TEMP:  48; 6HR MAX TEMP:  57;

BUFFALO        CLOUDY    46  37  71 CALM      30.14S
6HR MIN TEMP:  45; 6HR MAX TEMP:  53;

GILLETTE       LGT RAIN  41  39  93 SE3       30.13R
6HR MIN TEMP:  41; 6HR MAX TEMP:  52; 6HR PCP:  0.03;

HULETT         CLOUDY    41  37  87 SW8       30.12S
NEWCASTLE      MOCLDY    37  32  81 SE3       30.16R

$$
WYZ014>020-022>026-101>103-270700-
CENTRAL WYOMING

CITY           SKY/WX    TMP DP  RH WIND       PRES   REMARKS
BIG PINEY      FAIR      32  26  78 NW9       30.35S WCI  24
6HR MIN TEMP:  32; 6HR MAX TEMP:  50;

PINEDALE       FAIR      37  30  75 W13       30.34R WCI  29
DUBOIS         CLOUDY    43  28  56 W16       30.32S
LANDER         FAIR      45  26  47 VRB3      30.20S
6HR MIN TEMP:  44; 6HR MAX TEMP:  61;

RIVERTON       FAIR      50  30  46 NW22G29   30.20S
6HR MIN TEMP:  49; 6HR MAX TEMP:  60;

CASPER         MOCLDY    44  31  60 SW12      30.17S
6HR MIN TEMP:  43; 6HR MAX TEMP:  55;

DOUGLAS        CLOUDY    44  33  65 N6        30.16S
6HR MIN TEMP:  43; 6HR MAX TEMP:  55;


$$
WYZ021-027>030-104>119-270700-
SOUTHERN WYOMING

CITY           SKY/WX    TMP DP  RH WIND       PRES   REMARKS
EVANSTON       FAIR      40  26  57 S5        30.40S
6HR MIN TEMP:  39; 6HR MAX TEMP:  53;

KEMMERER       FAIR      39  32  75 W8        30.40S WCI  34
FORT BRIDGER   FAIR      41  30  64 W12       30.41S
ROCK SPRINGS   FAIR      40  29  64 W15       30.33R WCI  32
6HR MIN TEMP:  39; 6HR MAX TEMP:  54;

DIXON          FAIR      38  29  71 E5        30.34S WCI  34
RAWLINS        FAIR      38  27  64 SW7       30.28R WCI  33
6HR MIN TEMP:  38; 6HR MAX TEMP:  56;

SARATOGA       FAIR      41  28  60 W18       30.27S
LARAMIE        MOCLDY    38  26  62 W8        30.22S WCI  32
6HR MIN TEMP:  37; 6HR MAX TEMP:  49;

CHEYENNE       CLOUDY    42  27  55 SW12      30.19R
6HR MIN TEMP:  41; 6HR MAX TEMP:  53;

TORRINGTON     MOCLDY    39  31  72 NE6       30.15S WCI  35
6HR MIN TEMP:  39; 6HR MAX TEMP:  53;

PINE BLUFFS    CLOUDY    37  32  81 W5        30.17F WCI  34

$$


USA.gov is the U.S. government's official web portal to all federal, state and local government web resources and services.